RH
90 88 89 91 90 89 90 92 92 93 92 90 88 85 84 84 84 84 80 80 80 77 73 72 73 74 73 72 73 71 71 70 67 65 63 58 54 49 39 32 33 35 36 36 37 37 37 34 32 35 42 47
88 87 88 90 88 88 89 90 91 93 90 88 88 84 83 84 84 83 82 82 80 76 69 67 71 74 75 76 75 74 73 72 67 61 56 49 42 36 34 35 37 38 39 40 40 40 40 37 35 40 44 48
90 90 89 89 89 89 88 89 91 92 89 87 87 85 83 83 83 83 83 83 82 79 74 68 69 74 78 79 77 76 75 72 65 54 47 42 36 34 35 38 41 42 42 42 43 44 43 40 39 42 44 50
95 93 90 88 89 90 88 88 89 87 87 88 86 85 83 81 82 82 82 82 82 80 78 74 72 75 80 81 78 77 75 69 63 54 44 40 38 37 38 39 41 42 42 42 43 43 43 41 41 41 43 51
96 94 94 92 90 91 91 90 89 86 86 87 86 86 85 82 81 82 81 81 82 81 79 76 74 75 78 79 78 75 71 66 62 57 48 44 42 41 40 40 39 39 38 39 39 39 39 38 39 38 40 49
96 96 97 97 94 93 94 93 91 89 88 87 86 87 86 84 82 82 82 81 82 82 79 77 75 74 74 76 76 72 69 65 61 57 52 50 48 45 45 42 39 39 38 38 37 37 37 35 36 35 37 46
97 97 97 98 97 95 93 93 93 91 88 87 88 87 86 84 83 82 81 81 81 81 80 79 77 76 74 74 74 71 68 65 62 59 57 56 54 53 53 50 46 42 40 39 39 39 39 37 36 35 37 45
99 98 98 99 98 96 95 93 92 89 87 87 87 87 85 82 82 82 81 80 79 80 81 80 80 79 78 77 75 73 71 68 66 64 64 63 61 60 60 60 57 53 48 43 40 39 39 38 38 37 38 44
100 100 99 99 99 99 98 96 92 89 88 88 87 86 85 83 83 82 79 78 78 79 79 79 79 79 79 79 77 75 73 71 70 69 68 67 66 65 64 64 63 61 59 54 49 45 41 40 39 39 40 44
99 100 99 97 98 99 99 98 95 92 93 93 90 87 86 84 84 82 77 76 76 77 77 78 77 77 77 77 76 74 72 71 69 68 68 67 67 66 66 66 65 64 63 62 59 54 50 47 45 43 42 42
97 99 99 97 97 99 99 98 97 95 95 95 91 88 85 82 81 80 76 75 76 77 77 77 76 74 73 72 72 71 70 69 67 66 65 65 64 64 63 62 61 60 59 58 55 52 50 48 47 45 43 43
94 97 99 99 98 99 98 97 97 96 96 94 90 86 85 84 82 79 76 74 75 76 77 78 76 74 70 67 65 65 65 65 64 63 63 61 59 57 56 55 53 51 49 48 46 45 43 42 42 41 41 41
89 94 96 97 98 99 98 96 95 94 95 95 92 89 88 88 86 82 78 76 75 76 77 77 76 73 68 64 61 60 60 60 60 59 58 57 54 51 50 48 46 44 42 40 39 39 38 38 38 37 36 35
82 90 93 94 95 95 93 93 93 93 94 94 93 93 92 89 87 84 81 78 76 77 78 76 73 69 64 60 58 57 56 55 55 55 55 54 51 49 47 45 43 40 38 37 36 36 35 36 35 34 33 31
73 85 92 94 96 93 88 88 89 89 92 93 93 93 93 91 85 83 81 77 77 77 76 74 71 68 63 59 57 56 55 53 54 55 54 53 51 48 46 45 43 40 39 37 36 36 35 35 34 33 32 30
57 71 82 87 90 89 87 87 89 90 90 91 92 91 92 90 84 81 80 78 78 77 74 73 72 71 67 62 57 56 56 53 53 55 54 53 51 48 47 44 42 41 41 40 38 38 37 36 35 34 33 31
47 55 68 78 85 89 86 83 82 85 85 84 88 89 89 89 85 82 81 81 82 80 77 76 76 75 74 70 64 59 58 56 54 55 55 53 51 49 48 45 43 42 41 40 38 38 37 36 35 33 32 31
44 48 59 72 84 88 80 73 73 73 74 76 78 81 83 84 84 83 82 82 82 81 81 81 81 81 81 80 75 68 64 62 59 59 59 57 54 51 49 46 43 41 39 37 36 35 34 34 33 32 31 30
40 44 50 60 71 73 67 73 81 76 71 73 74 74 76 79 82 84 84 84 83 83 82 83 84 84 83 82 80 75 70 67 64 63 64 62 59 54 51 47 43 40 38 35 34 33 32 32 31 30 29 28
35 39 43 49 56 61 64 73 81 78 74 79 82 80 80 83 87 91 92 91 89 87 85 84 82 81 79 77 76 74 71 66 64 62 61 61 59 56 53 49 45 41 38 36 34 33 32 31 30 29 28 27
32 34 38 43 47 54 64 68 69 74 81 87 91 89 88 91 93 95 96 95 92 89 86 84 83 81 77 73 72 71 68 64 60 58 57 55 54 52 50 47 44 41 38 36 35 33 32 31 30 28 27 26
32 36 39 40 42 48 58 62 61 67 75 83 90 92 93 96 96 96 96 96 93 88 84 80 80 81 77 72 70 69 68 65 60 58 56 52 50 49 47 45 42 38 36 36 35 34 33 31 30 28 27 26
41 45 48 43 43 44 48 54 56 57 61 71 78 81 87 91 92 95 96 94 92 90 85 77 74 75 74 68 66 66 65 64 61 60 57 52 49 47 46 45 43 39 36 36 36 34 33 31 30 28 27 27
54 54 52 48 47 43 40 43 47 50 53 61 66 67 74 80 82 85 87 90 93 93 87 79 72 72 71 66 62 61 58 58 60 57 54 50 46 43 43 43 42 40 37 35 35 33 31 31 30 29 28 27
55 58 58 55 53 48 41 37 40 45 49 57 62 63 66 69 70 70 72 82 90 90 89 86 80 75 73 69 63 59 56 58 59 52 46 43 41 38 37 38 38 37 34 31 29 27 27 26 26 26 24 24
45 52 57 60 61 58 50 39 35 40 46 55 60 61 62 63 65 66 67 74 80 84 90 90 83 78 77 74 68 64 61 58 53 47 43 41 39 36 34 33 32 30 27 24 22 20 20 19 19 19 18 17
42 44 48 53 58 60 57 47 40 39 45 53 57 58 59 61 65 69 70 71 71 75 88 93 87 82 82 80 75 71 64 58 52 47 46 45 43 41 37 32 29 27 25 21 18 17 15 15 14 14 12 11
43 44 45 47 49 51 52 51 48 46 49 53 56 58 59 59 62 66 70 73 72 71 80 90 90 86 83 82 81 75 65 61 61 57 53 49 47 45 40 34 30 28 26 22 19 16 15 14 13 12 11 9
44 44 45 46 48 48 49 49 49 50 52 54 55 58 58 57 57 59 63 68 73 74 75 79 83 84 82 82 83 79 70 67 70 68 61 54 50 48 44 39 34 31 28 24 20 17 16 15 13 12 10 9
46 46 47 47 48 49 50 51 51 51 54 58 60 59 58 58 58 57 58 62 66 71 75 76 78 79 80 82 82 81 77 74 74 75 69 60 54 51 49 47 42 35 33 33 28 21 17 15 13 12 11 9
44 46 48 49 49 49 50 51 53 55 55 57 62 63 62 62 62 61 60 62 64 66 70 75 79 80 81 82 82 82 82 78 76 77 74 67 62 57 54 53 47 42 41 42 38 32 25 19 15 12 11 10